Location: Karcze
(52.0945°N, 22.4786°E)
Time: 12:18:31
(UTC+00:00)

CZ-4B R/B - Pass Details

Date: 14 July 2020
Orbit: 702 x 803 km, 98.9° (Epoch: 07 August)

Event Time Altitude Azimuth Distance (km) Brightness Sun altitude
Rises 00:37:14 0° 16° (NNE) 3,264 8.6 -11.7°
Reaches altitude 10° 00:39:36 10° 19° (NNE) 2,318 7.5 -11.5°
Maximum altitude 00:44:42 74° 104° (ESE) 787 3.6 -11.1°
Enters shadow 00:49:14 12° 189° (S) 2,088 5.2 -10.7°
